Location: Muenchen
(48.1800°N, 11.5800°E)
Time: 09:19:55
(UTC+02:00)

Tiros 1 - Visible Passes

Search period start: 19 April 2014 00:00
Search period end: 29 April 2014 00:00
Orbit: 633 x 668 km, 48.4° (Epoch: 18 April)

Date Brightness Start Highest point End Pass type
(mag) Time Alt. Az. Time Alt. Az. Time Alt. Az.
19 Apr 7.8 03:04:56 46° ESE 03:04:56 46° ESE 03:08:21 10° ESE visible
19 Apr 7.8 04:42:42 19° W 04:45:32 36° SSW 04:49:55 10° SE visible
20 Apr 7.6 03:31:51 47° SSE 03:31:51 47° SSE 03:35:31 10° ESE visible
20 Apr 8.5 05:09:40 13° W 05:12:28 20° SW 05:15:56 10° S visible
20 Apr 8.9 21:08:03 10° SSE 21:09:59 12° SE 21:10:10 12° SE visible
20 Apr 9.1 22:46:55 10° SW 22:48:05 17° SW 22:48:05 17° SW visible
21 Apr 8.2 03:59:22 30° S 03:59:22 30° S 04:02:19 10° SE visible
21 Apr 8.2 21:32:59 10° SSW 21:36:46 24° SE 21:38:28 20° ESE visible
21 Apr 8.3 23:13:52 10° WSW 23:16:20 31° SW 23:16:20 31° SW visible
22 Apr 9.1 04:27:33 13° S 04:27:33 13° S 04:28:23 10° S visible
22 Apr 7.5 21:59:19 10° SW 22:03:45 43° SSE 22:06:06 24° E visible
22 Apr 8.2 23:41:06 10° W 23:43:55 36° W 23:43:55 36° W visible
23 Apr 8.3 20:45:26 10° SSW 20:49:09 24° SE 20:52:53 10° E visible
23 Apr 7.0 22:26:14 10° WSW 22:30:54 67° SSE 22:33:08 30° E visible
24 Apr 8.5 00:08:27 10° W 00:10:55 31° W 00:10:55 31° W visible
24 Apr 7.6 21:11:43 10° SW 21:16:07 41° SSE 21:20:34 10° E visible
24 Apr 7.0 22:53:28 10° W 22:58:11 87° S 22:59:43 43° E visible
25 Apr 9.0 00:35:47 10° W 00:37:29 22° W 00:37:29 22° W visible
25 Apr 7.1 21:38:36 10° WSW 21:43:15 65° SSE 21:47:57 10° E visible
25 Apr 7.1 23:20:48 10° W 23:25:32 86° N 23:26:02 72° E visible
26 Apr 9.5 01:03:07 10° W 01:03:47 14° W 01:03:47 14° W visible
26 Apr 7.1 22:05:49 10° WSW 22:10:31 86° S 22:14:25 15° E visible
26 Apr 7.3 23:48:08 10° W 23:52:09 64° W 23:52:09 64° W visible
27 Apr 7.2 20:50:58 10° WSW 20:55:36 64° SSE 21:00:17 10° E visible
27 Apr 7.1 22:33:09 10° W 22:37:52 86° N 22:40:26 27° E visible
28 Apr 8.3 00:15:28 10° W 00:18:10 33° W 00:18:10 33° W visible
28 Apr 7.1 21:18:10 10° WSW 21:22:51 85° S 21:27:36 10° E visible
28 Apr 7.0 23:00:29 10° W 23:05:13 87° S 23:06:23 51° ESE visible
